This is the latest recevied weather packets stored in our database for station/object SA7AHC. If no packets are shown the sender has not sent any weather packets the latest 10 day(s).
| Time | Temp. | Humidity | Pressure | Rain* | Wind** | Luminosity | Snow |
|---|---|---|---|---|---|---|---|
| 1788158041 | 13.33° C | 98% | 1009.9 hPa | 0 mm | - | 155 W/m² | - |
| 1788157448 | 13.33° C | 98% | 1009.8 hPa | 0 mm | - | 65 W/m² | - |
| 1788156842 | 13.33° C | 98% | 1009.8 hPa | 0 mm | - | 113 W/m² | - |
| 1788156241 | 13.33° C | 98% | 1009.8 hPa | 0 mm | - | 83 W/m² | - |
| 1788155641 | 12.78° C | 98% | 1009.5 hPa | 0 mm | - | 25 W/m² | - |
| 1788155041 | 12.78° C | 98% | 1009.5 hPa | 0 mm | - | 23 W/m² | - |
| 1788154439 | 12.78° C | 98% | 1009.4 hPa | 0 mm | - | 14 W/m² | - |
| 1788153836 | 12.78° C | 98% | 1009.3 hPa | 0 mm | - | 25 W/m² | - |
| 1788153236 | 12.78° C | 98% | 1009.3 hPa | 0 mm | - | 19 W/m² | - |
| 1788152634 | 12.78° C | 98% | 1009.3 hPa | 0 mm | - | 26 W/m² | - |
| 1788152032 | 12.78° C | 98% | 1009.3 hPa | 0 mm | - | 25 W/m² | - |
| 1788151428 | 12.78° C | 98% | 1009.3 hPa | 0 mm | - | 19 W/m² | - |
| 1788150823 | 12.78° C | 98% | 1009.3 hPa | 0 mm | - | 14 W/m² | - |
| 1788150223 | 12.78° C | 98% | 1009.1 hPa | 0 mm | - | 9 W/m² | - |
| 1788149625 | 12.78° C | 98% | 1009.1 hPa | 0 mm | - | 7 W/m² | - |
| 1788149018 | 12.78° C | 98% | 1009.1 hPa | 0 mm | - | 0 W/m² | - |
| 1788148414 | 12.78° C | 98% | 1009.3 hPa | 0 mm | - | 0 W/m² | - |
| 1788147814 | 12.78° C | 98% | 1009.3 hPa | 0 mm | - | 0 W/m² | - |
| 1788147216 | 12.78° C | 98% | 1009.1 hPa | 0 mm | - | 0 W/m² | - |
| 1788146614 | 12.78° C | 98% | 1009.3 hPa | 0 mm | - | 0 W/m² | - |
| 1788146013 | 12.22° C | 98% | 1009.3 hPa | 0 mm | - | 0 W/m² | - |
| 1788145414 | 12.22° C | 98% | 1009.1 hPa | 0 mm | - | 0 W/m² | - |
| 1788144813 | 12.78° C | 98% | 1008.9 hPa | 0 mm | - | 0 W/m² | - |
| 1788144209 | 12.78° C | 98% | 1008.9 hPa | 0 mm | - | 0 W/m² | - |
| 1788143605 | 12.78° C | 98% | 1008.7 hPa | 0 mm | - | 0 W/m² | - |
* Rain latest hour (hover to see other rain measurements)
** Current wind speed in m/s (hover to see current wind gust speed)